SCP
0 0 -0 -0 -0 -0 0 -0 0 0 0 0 0 0 0 0 0 0 0 0 0 0 0 0 0 0 0 0 0 0 0 0 0 0 0 0 0 0 0 0 0 0 0 0 1
0 -0 -0 -0 -0 -0 0 0 0 0 0 0 0 0 0 0 0 0 0 0 0 0 0 0 0 0 0 0 0 0 0 0 0 0 0 0 0 0 0 0 0 0 0 0 0
0 0 0 0 0 0 0 0 0 0 0 0 0 0 0 0 0 0 0 0 0 0 0 0 0 0 0 0 0 0 0 0 0 0 0 0 0 0 0 0 0 0 0 0 0
0 0 0 0 0 0 0 0 0 0 0 0 0 0 0 0 0 0 0 0 0 0 0 0 0 0 0 0 0 0 0 0 0 0 0 0 0 0 0 0 0 0 0 0 0
0 0 -0 0 0 0 0 0 0 0 0 0 0 0 0 0 0 0 0 0 0 0 0 0 0 0 0 0 0 0 0 0 0 0 0 0 0 0 0 0 0 0 0 0 0
0 0 0 0 0 0 0 0 0 0 0 0 0 0 0 0 0 0 0 0 0 0 0 0 0 0 0 0 0 0 0 0 0 0 0 0 0 0 0 0 0 0 0 0 0
0 0 0 0 0 0 0 0 0 0 0 0 0 0 0 0 0 0 0 0 0 0 0 0 0 0 0 0 0 0 0 0 0 0 0 0 0 0 0 0 0 0 0 0 0
0 0 0 0 0 0 0 0 0 0 0 0 0 0 0 0 0 0 0 0 0 0 0 0 0 0 0 0 0 0 0 0 0 0 0 0 0 0 0 0 0 0 0 0 0
0 0 0 0 0 0 -0 -0 0 0 0 0 0 0 0 0 0 0 0 0 0 0 0 0 0 0 0 0 0 0 0 0 0 0 0 0 0 0 0 0 0 0 0 0 0
0 0 0 0 0 0 0 0 0 0 0 0 0 0 0 0 0 0 0 0 0 0 0 0 0 0 0 0 0 0 0 0 0 0 0 0 -0 0 0 0 0 0 0 0 0
0 0 0 0 0 0 0 0 0 0 0 0 0 0 0 0 0 0 0 0 0 0 0 0 0 0 0 0 0 0 0 0 0 0 -0 -0 0 -0 0 0 0 0 0 0 0
0 0 0 0 0 0 0 0 0 0 0 0 0 0 0 0 0 0 0 0 0 0 0 0 0 0 0 0 0 0 0 -0 -0 0 0 0 -0 -0 0 0 0 0 0 0 0
0 0 0 0 0 0 0 0 0 0 0 0 0 0 0 0 0 0 0 0 0 0 -0 0 0 0 0 0 0 0 0 0 0 0 0 0 -0 -0 -0 0 0 0 0 0 0
-0 0 0 0 0 0 0 0 0 0 0 0 0 0 0 0 0 0 0 0 0 0 -0 0 0 0 0 0 0 0 0 0 0 0 0 0 0 0 0 0 -0 0 0 0 0
0 0 0 0 0 0 0 0 0 0 0 0 0 0 0 0 -0 0 0 0 0 0 0 0 0 0 0 0 0 0 0 0 0 0 0 0 0 0 0 0 0 0 0 0 0
0 0 0 0 0 0 0 0 0 0 0 0 0 0 0 0 0 0 0 0 0 0 0 0 0 0 0 0 0 0 0 0 0 0 0 0 0 0 0 0 0 0 0 0 0
0 0 0 0 0 0 0 0 0 0 0 0 0 0 0 0 0 0 0 0 -0 -0 0 0 0 0 0 0 0 0 0 0 0 0 0 0 0 0 0 0 0 0 0 0 0
0 0 0 0 0 0 0 0 0 0 0 0 0 0 0 0 0 0 0 0 0 -0 0 -0 -0 0 0 0 0 0 0 0 0 0 0 0 0 0 0 0 0 -0 -0 0 0
0 0 0 0 0 0 0 0 0 0 0 0 0 0 0 0 0 0 0 0 -0 -0 -0 0 0 0 0 0 0 0 0 0 0 0 0 0 0 0 0 0 0 0 0 0 0
0 0 0 0 0 0 0 0 0 0 0 0 0 0 0 0 0 0 0 0 -0 -0 0 0 0 0 0 0 0 0 0 0 0 0 0 0 0 -0 -0 0 -0 0 0 0 0
0 0 0 0 0 0 0 0 0 0 0 0 0 0 0 0 0 0 0 0 0 0 0 0 0 0 0 0 -0 0 0 0 0 0 0 0 0 -0 0 0 -0 -0 -0 0 0
0 0 0 0 0 0 0 0 0 0 0 0 0 0 0 0 0 0 0 -0 -0 0 0 0 0 0 0 0 0 0 0 0 0 0 0 0 0 0 -0 0 -0 -0 -0 0 0
0 0 0 0 0 0 0 0 0 0 0 0 0 0 -0 0 0 0 0 0 -0 0 0 0 0 0 0 0 0 0 0 0 0 0 0 0 0 0 0 0 -0 -0 0 0 0
0 0 0 0 0 0 0 0 0 0 0 0 -0 0 -0 0 0 0 0 -0 -0 0 -0 0 0 0 0 0 0 0 0 0 0 0 0 0 0 0 -0 -0 -0 -0 0 -0 0
0 0 0 0 0 0 0 0 0 0 0 0 0 0 0 0 0 0 0 0 -0 0 -0 0 0 0 0 0 0 0 0 0 0 0 0 0 0 0 0 0 0 0 0 0 0
0 0 0 0 0 0 0 0 0 0 0 0 0 0 0 0 0 0 0 0 0 0 -0 0 0 0 0 0 0 0 0 0 0 0 0 0 0 0 0 0 0 0 0 0 0
0 0 0 0 0 0 0 0 0 0 -0 -0 0 0 0 0 0 0 0 0 0 0 0 0 -0 -0 0 0 0 0 0 0 0 0 0 0 0 0 0 0 0 0 0 0 0
Wind_Speed_500mb
20 17 14 15 19 25 29 29 32 25 24 28 30 34 38 42 45 21 16 15 18 24 30 26 19 28 19 10 12 17 11 19 25 30 36 45 28 54 37 3 5 20 31 6 9
19 28 20 14 20 22 26 29 32 26 25 28 30 34 37 41 33 6 13 13 18 26 25 25 27 30 20 16 9 11 15 18 19 21 27 40 38 48 29 30 4 16 18 8 7
23 31 19 21 26 28 30 30 27 24 25 25 29 37 41 45 24 5 21 29 26 27 19 20 23 26 16 22 17 12 26 30 45 50 44 35 43 47 39 23 12 22 33 10 7
22 29 22 25 27 25 26 27 26 26 27 28 31 38 40 29 13 10 25 28 30 29 22 24 26 26 20 17 34 27 34 41 49 49 40 33 52 41 52 46 48 45 35 32 20
24 27 30 25 22 26 30 32 31 30 29 29 31 36 36 15 9 13 29 32 24 20 21 24 25 26 15 27 36 28 34 44 48 45 42 44 42 46 68 57 58 60 52 45 25
30 28 24 17 24 31 31 32 32 32 31 31 31 31 17 19 13 16 22 18 17 19 20 17 16 22 24 28 24 36 48 45 52 54 55 44 46 45 64 48 53 56 72 71 51
26 25 19 24 32 33 34 33 34 32 29 29 29 22 17 19 22 22 15 21 26 19 18 16 19 19 21 27 28 34 35 38 48 53 45 54 45 51 68 69 76 69 60 58 58
31 22 24 31 37 42 39 32 29 26 25 24 19 4 9 17 14 16 15 29 15 20 19 22 21 27 30 31 39 33 24 18 23 25 22 27 40 43 52 56 72 66 65 64 69
14 22 28 36 39 32 23 22 24 20 14 13 13 2 5 15 18 30 22 23 25 22 20 16 17 20 20 12 17 20 16 25 26 23 28 10 30 30 51 36 34 46 51 59 59
22 28 34 29 21 21 23 24 18 10 21 13 5 6 4 21 37 36 17 18 15 17 16 9 8 6 6 9 14 14 16 21 25 13 24 23 45 30 53 52 43 36 37 38 46
22 28 20 18 19 22 23 17 13 6 14 8 13 11 18 32 29 20 20 21 14 12 4 10 10 20 24 28 39 38 40 44 42 36 40 39 46 43 42 47 47 45 48 50 53
22 14 15 16 17 19 19 12 12 7 11 10 14 14 15 29 25 21 17 12 5 14 21 9 25 35 32 32 39 35 40 46 45 37 34 34 51 42 39 39 50 45 47 54 52
13 11 13 14 15 17 16 16 11 11 6 3 14 10 16 24 19 16 14 16 7 8 15 21 30 43 37 31 33 33 35 43 49 43 34 40 60 44 39 47 58 65 65 62 57
12 9 10 11 9 15 12 18 15 3 1 12 5 5 16 33 10 27 10 8 4 11 14 21 27 22 31 35 29 35 27 36 37 26 23 15 30 17 18 18 32 56 58 60 62
8 5 6 6 5 7 14 19 12 9 4 14 11 16 35 7 22 3 15 9 18 23 4 16 33 34 31 26 32 23 30 24 29 25 22 9 12 11 7 23 23 23 39 58 62
7 5 7 6 7 10 16 18 4 1 4 10 9 15 21 9 18 16 20 18 32 18 29 41 45 28 13 30 34 39 31 32 20 4 10 23 22 7 8 11 20 33 34 38 57
6 6 7 5 7 15 19 7 3 9 2 16 10 15 19 12 15 19 17 17 9 15 20 28 3 7 12 20 16 17 23 7 6 7 10 6 14 21 25 36 31 33 50 56 36
9 8 7 6 8 13 11 4 12 3 4 7 8 22 6 18 9 21 18 12 17 13 21 12 17 7 7 13 16 26 12 9 10 7 14 9 11 2 24 42 49 58 56 52 28
12 10 9 6 5 10 2 8 4 4 4 12 15 7 8 10 8 13 12 13 14 18 11 10 11 19 25 14 5 14 10 25 13 19 13 8 10 4 37 35 40 45 32 18 23
17 10 8 6 3 5 6 5 3 1 4 4 6 10 7 15 16 14 11 7 13 22 18 7 13 11 25 4 12 19 23 7 7 7 7 7 10 21 39 39 37 26 25 33 30
18 6 7 6 2 3 4 5 3 4 1 4 5 4 6 10 14 9 10 10 8 16 26 10 6 21 14 13 35 19 18 7 5 7 7 9 6 28 31 25 26 27 38 36 30
16 2 6 9 5 5 3 5 4 5 6 3 3 6 5 10 10 8 7 4 18 18 17 6 8 11 3 21 28 32 29 17 8 11 6 8 7 34 31 23 33 40 45 47 41
14 7 6 13 4 5 2 2 2 4 4 1 5 8 9 6 9 10 8 11 15 11 8 14 7 9 15 10 17 23 47 44 13 3 24 10 9 25 33 27 45 48 54 54 48
12 4 5 8 7 10 9 5 6 8 4 7 5 6 8 5 10 10 10 9 33 14 24 7 8 5 7 10 18 32 48 39 29 8 9 16 23 37 39 34 40 55 57 58 56
18 7 11 6 7 10 6 12 8 7 8 12 4 10 3 6 5 7 8 14 12 21 18 5 5 9 16 8 7 30 38 39 32 27 16 19 21 30 30 27 43 45 50 54 57
18 14 10 8 24 15 4 12 11 7 12 8 7 6 10 11 7 7 10 5 5 16 13 12 6 6 8 8 12 20 40 36 26 27 10 19 20 20 35 47 53 52 50 56 57
38 22 15 17 12 5 9 12 12 18 18 6 7 4 14 19 20 26 21 28 28 10 8 9 6 9 9 6 8 11 27 24 18 31 16 16 7 18 29 38 50 50 53 55 57
Wind_Direction_500mb
7 358 356 345 346 339 337 344 341 346 347 347 347 349 354 354 352 9 19 9 16 20 13 351 1 344 334 282 270 274 257 259 261 257 276 282 294 296 291 40 196 230 270 207 159
357 355 342 345 342 332 329 328 332 339 338 341 343 345 349 348 356 18 12 357 348 354 0 358 351 348 336 297 279 244 252 266 275 313 323 327 337 327 338 315 208 267 264 108 167
329 339 341 333 328 323 328 336 340 343 342 341 340 339 343 344 340 85 337 343 336 336 339 332 329 331 307 300 259 250 257 282 296 307 316 320 311 315 309 292 280 274 257 329 338
316 325 325 329 333 347 347 343 345 346 341 336 338 330 341 9 11 286 326 335 336 345 330 327 327 321 306 287 286 287 280 282 292 296 302 300 303 301 295 292 301 295 294 307 304
315 314 314 325 337 337 335 328 327 323 320 322 323 327 336 343 336 321 314 325 334 322 329 327 322 322 303 315 316 288 277 281 282 288 284 284 279 283 278 280 284 287 285 280 285
306 313 320 322 325 323 322 320 318 315 315 321 322 325 331 302 299 323 323 353 342 340 334 316 308 313 294 283 278 290 290 292 287 281 278 272 267 258 261 282 272 262 268 272 272
297 315 319 314 317 320 321 319 317 316 320 320 317 319 305 281 289 294 289 331 322 313 306 298 297 286 300 306 299 317 306 292 277 274 261 253 257 252 264 261 258 258 255 257 263
312 310 309 310 313 318 318 319 319 330 323 324 319 309 268 294 324 342 308 308 319 303 294 293 298 282 269 275 289 283 282 275 284 299 263 244 253 254 265 254 244 244 246 250 251
330 320 309 310 319 328 339 337 334 337 350 344 35 344 299 334 341 314 315 304 302 300 285 308 290 267 276 260 276 232 264 250 285 285 257 245 257 256 265 271 272 228 236 235 241
320 320 322 330 347 353 349 342 353 33 16 30 19 300 277 326 323 320 345 317 287 313 304 269 254 252 234 220 258 276 265 259 262 253 269 257 258 259 268 287 282 274 268 251 245
320 323 348 356 356 355 358 15 356 29 22 17 320 292 309 320 338 334 307 313 279 300 276 273 252 244 247 236 250 266 274 276 270 278 292 287 265 262 265 266 265 260 258 251 248
324 355 360 356 359 3 23 57 43 342 323 310 333 316 324 330 314 329 313 318 11 304 318 292 260 262 266 282 276 257 267 272 278 265 263 270 267 273 264 255 259 260 261 257 247
333 343 354 352 357 12 27 38 359 341 260 335 327 329 327 344 325 303 332 309 222 271 265 246 263 305 293 288 276 262 264 273 270 284 271 273 275 268 261 248 250 253 255 257 253
322 316 341 351 16 1 350 351 345 45 329 354 347 311 340 315 269 318 288 287 305 288 301 274 264 287 313 295 289 284 272 275 272 273 271 213 287 229 281 242 233 243 243 242 243
313 320 327 337 349 355 324 330 338 79 49 327 326 326 333 341 305 242 327 282 265 267 195 258 302 301 296 286 301 275 298 284 284 269 292 221 261 116 289 282 268 249 244 234 234
282 273 285 318 329 332 333 334 73 27 352 334 312 335 355 330 322 303 332 278 265 280 259 267 274 281 262 303 299 286 283 274 253 234 249 222 206 340 265 324 351 337 314 273 228
246 232 241 299 294 330 340 33 11 63 330 322 337 333 330 322 329 358 317 335 23 330 335 318 328 14 29 309 311 336 293 286 223 206 232 333 208 246 15 351 327 304 303 302 253
220 215 245 277 307 336 340 38 54 221 357 333 313 312 2 3 3 341 335 345 49 4 306 351 331 358 300 305 299 312 315 283 290 299 309 178 236 265 3 338 327 305 280 286 297
212 220 240 259 327 342 29 50 158 94 351 345 307 339 339 10 343 336 328 7 11 17 349 332 288 327 307 349 332 316 298 305 282 262 261 215 32 134 346 340 330 308 248 205 112
207 224 245 237 323 358 66 106 116 31 347 303 352 32 318 337 340 351 333 16 357 6 348 304 293 275 306 16 306 284 297 297 219 293 286 38 59 333 344 345 348 357 77 94 102
187 220 242 199 137 81 83 102 155 188 155 14 3 324 316 332 324 310 300 300 39 335 326 272 214 300 330 4 356 350 353 270 281 291 324 334 86 349 341 350 0 2 41 66 89
182 213 212 173 65 47 102 116 145 153 164 292 329 260 294 322 298 296 284 270 339 325 341 336 295 289 333 39 24 14 5 355 336 3 317 300 80 355 347 3 26 22 37 51 77
187 197 187 178 172 124 117 114 178 180 170 210 219 240 317 291 302 293 306 281 343 24 345 336 299 297 317 4 23 17 10 12 340 337 9 360 348 347 356 16 31 35 35 49 64
178 144 151 190 163 131 146 169 155 210 214 177 285 312 286 251 226 293 299 308 329 25 345 296 277 339 326 340 0 8 9 10 16 7 357 22 343 7 359 13 25 33 37 46 60
199 197 169 163 218 134 167 155 144 156 210 195 241 231 240 291 273 233 283 316 345 12 355 61 290 340 288 217 25 19 11 2 19 5 31 355 16 6 6 1 25 35 42 46 52
190 156 146 108 137 120 205 204 160 136 162 211 205 261 218 205 232 294 350 334 313 338 347 3 298 326 285 247 202 17 7 1 18 12 359 29 41 13 12 29 29 30 37 41 44
199 164 146 156 162 165 197 172 186 146 218 248 214 326 250 254 264 265 276 284 283 300 314 347 5 358 288 339 35 5 356 345 342 17 337 10 13 22 30 33 27 24 36 39 43
Wind_Speed_850mb
20 17 14 15 19 25 29 29 32 25 24 28 30 34 38 42 45 21 16 15 18 24 30 26 19 28 19 10 12 17 11 19 25 30 36 45 28 54 37 3 5 20 31 6 9
19 28 20 14 20 22 26 29 32 26 25 28 30 34 37 41 33 6 13 13 18 26 25 25 27 30 20 16 9 11 15 18 19 21 27 40 38 48 29 30 4 16 18 8 7
23 31 19 21 26 28 30 30 27 24 25 25 29 37 41 45 24 5 21 29 26 27 19 20 23 26 16 22 17 12 26 30 45 50 44 35 43 47 39 23 12 22 33 10 7
22 29 22 25 27 25 26 27 26 26 27 28 31 38 40 29 13 10 25 28 30 29 22 24 26 26 20 17 34 27 34 41 49 49 40 33 52 41 52 46 48 45 35 32 20
24 27 30 25 22 26 30 32 31 30 29 29 31 36 36 15 9 13 29 32 24 20 21 24 25 26 15 27 36 28 34 44 48 45 42 44 42 46 68 57 58 60 52 45 25
30 28 24 17 24 31 31 32 32 32 31 31 31 31 17 19 13 16 22 18 17 19 20 17 16 22 24 28 24 36 48 45 52 54 55 44 46 45 64 48 53 56 72 71 51
26 25 19 24 32 33 34 33 34 32 29 29 29 22 17 19 22 22 15 21 26 19 18 16 19 19 21 27 28 34 35 38 48 53 45 54 45 51 68 69 76 69 60 58 58
31 22 24 31 37 42 39 32 29 26 25 24 19 4 9 17 14 16 15 29 15 20 19 22 21 27 30 31 39 33 24 18 23 25 22 27 40 43 52 56 72 66 65 64 69
14 22 28 36 39 32 23 22 24 20 14 13 13 2 5 15 18 30 22 23 25 22 20 16 17 20 20 12 17 20 16 25 26 23 28 10 30 30 51 36 34 46 51 59 59
22 28 34 29 21 21 23 24 18 10 21 13 5 6 4 21 37 36 17 18 15 17 16 9 8 6 6 9 14 14 16 21 25 13 24 23 45 30 53 52 43 36 37 38 46
22 28 20 18 19 22 23 17 13 6 14 8 13 11 18 32 29 20 20 21 14 12 4 10 10 20 24 28 39 38 40 44 42 36 40 39 46 43 42 47 47 45 48 50 53
22 14 15 16 17 19 19 12 12 7 11 10 14 14 15 29 25 21 17 12 5 14 21 9 25 35 32 32 39 35 40 46 45 37 34 34 51 42 39 39 50 45 47 54 52
13 11 13 14 15 17 16 16 11 11 6 3 14 10 16 24 19 16 14 16 7 8 15 21 30 43 37 31 33 33 35 43 49 43 34 40 60 44 39 47 58 65 65 62 57
12 9 10 11 9 15 12 18 15 3 1 12 5 5 16 33 10 27 10 8 4 11 14 21 27 22 31 35 29 35 27 36 37 26 23 15 30 17 18 18 32 56 58 60 62
8 5 6 6 5 7 14 19 12 9 4 14 11 16 35 7 22 3 15 9 18 23 4 16 33 34 31 26 32 23 30 24 29 25 22 9 12 11 7 23 23 23 39 58 62
7 5 7 6 7 10 16 18 4 1 4 10 9 15 21 9 18 16 20 18 32 18 29 41 45 28 13 30 34 39 31 32 20 4 10 23 22 7 8 11 20 33 34 38 57
6 6 7 5 7 15 19 7 3 9 2 16 10 15 19 12 15 19 17 17 9 15 20 28 3 7 12 20 16 17 23 7 6 7 10 6 14 21 25 36 31 33 50 56 36
9 8 7 6 8 13 11 4 12 3 4 7 8 22 6 18 9 21 18 12 17 13 21 12 17 7 7 13 16 26 12 9 10 7 14 9 11 2 24 42 49 58 56 52 28
12 10 9 6 5 10 2 8 4 4 4 12 15 7 8 10 8 13 12 13 14 18 11 10 11 19 25 14 5 14 10 25 13 19 13 8 10 4 37 35 40 45 32 18 23
17 10 8 6 3 5 6 5 3 1 4 4 6 10 7 15 16 14 11 7 13 22 18 7 13 11 25 4 12 19 23 7 7 7 7 7 10 21 39 39 37 26 25 33 30
18 6 7 6 2 3 4 5 3 4 1 4 5 4 6 10 14 9 10 10 8 16 26 10 6 21 14 13 35 19 18 7 5 7 7 9 6 28 31 25 26 27 38 36 30
16 2 6 9 5 5 3 5 4 5 6 3 3 6 5 10 10 8 7 4 18 18 17 6 8 11 3 21 28 32 29 17 8 11 6 8 7 34 31 23 33 40 45 47 41
14 7 6 13 4 5 2 2 2 4 4 1 5 8 9 6 9 10 8 11 15 11 8 14 7 9 15 10 17 23 47 44 13 3 24 10 9 25 33 27 45 48 54 54 48
12 4 5 8 7 10 9 5 6 8 4 7 5 6 8 5 10 10 10 9 33 14 24 7 8 5 7 10 18 32 48 39 29 8 9 16 23 37 39 34 40 55 57 58 56
18 7 11 6 7 10 6 12 8 7 8 12 4 10 3 6 5 7 8 14 12 21 18 5 5 9 16 8 7 30 38 39 32 27 16 19 21 30 30 27 43 45 50 54 57
18 14 10 8 24 15 4 12 11 7 12 8 7 6 10 11 7 7 10 5 5 16 13 12 6 6 8 8 12 20 40 36 26 27 10 19 20 20 35 47 53 52 50 56 57
38 22 15 17 12 5 9 12 12 18 18 6 7 4 14 19 20 26 21 28 28 10 8 9 6 9 9 6 8 11 27 24 18 31 16 16 7 18 29 38 50 50 53 55 57
Wind_Direction_850mb
7 358 356 345 346 339 337 344 341 346 347 347 347 349 354 354 352 9 19 9 16 20 13 351 1 344 334 282 270 274 257 259 261 257 276 282 294 296 291 40 196 230 270 207 159
357 355 342 345 342 332 329 328 332 339 338 341 343 345 349 348 356 18 12 357 348 354 0 358 351 348 336 297 279 244 252 266 275 313 323 327 337 327 338 315 208 267 264 108 167
329 339 341 333 328 323 328 336 340 343 342 341 340 339 343 344 340 85 337 343 336 336 339 332 329 331 307 300 259 250 257 282 296 307 316 320 311 315 309 292 280 274 257 329 338
316 325 325 329 333 347 347 343 345 346 341 336 338 330 341 9 11 286 326 335 336 345 330 327 327 321 306 287 286 287 280 282 292 296 302 300 303 301 295 292 301 295 294 307 304
315 314 314 325 337 337 335 328 327 323 320 322 323 327 336 343 336 321 314 325 334 322 329 327 322 322 303 315 316 288 277 281 282 288 284 284 279 283 278 280 284 287 285 280 285
306 313 320 322 325 323 322 320 318 315 315 321 322 325 331 302 299 323 323 353 342 340 334 316 308 313 294 283 278 290 290 292 287 281 278 272 267 258 261 282 272 262 268 272 272
297 315 319 314 317 320 321 319 317 316 320 320 317 319 305 281 289 294 289 331 322 313 306 298 297 286 300 306 299 317 306 292 277 274 261 253 257 252 264 261 258 258 255 257 263
312 310 309 310 313 318 318 319 319 330 323 324 319 309 268 294 324 342 308 308 319 303 294 293 298 282 269 275 289 283 282 275 284 299 263 244 253 254 265 254 244 244 246 250 251
330 320 309 310 319 328 339 337 334 337 350 344 35 344 299 334 341 314 315 304 302 300 285 308 290 267 276 260 276 232 264 250 285 285 257 245 257 256 265 271 272 228 236 235 241
320 320 322 330 347 353 349 342 353 33 16 30 19 300 277 326 323 320 345 317 287 313 304 269 254 252 234 220 258 276 265 259 262 253 269 257 258 259 268 287 282 274 268 251 245
320 323 348 356 356 355 358 15 356 29 22 17 320 292 309 320 338 334 307 313 279 300 276 273 252 244 247 236 250 266 274 276 270 278 292 287 265 262 265 266 265 260 258 251 248
324 355 360 356 359 3 23 57 43 342 323 310 333 316 324 330 314 329 313 318 11 304 318 292 260 262 266 282 276 257 267 272 278 265 263 270 267 273 264 255 259 260 261 257 247
333 343 354 352 357 12 27 38 359 341 260 335 327 329 327 344 325 303 332 309 222 271 265 246 263 305 293 288 276 262 264 273 270 284 271 273 275 268 261 248 250 253 255 257 253
322 316 341 351 16 1 350 351 345 45 329 354 347 311 340 315 269 318 288 287 305 288 301 274 264 287 313 295 289 284 272 275 272 273 271 213 287 229 281 242 233 243 243 242 243
313 320 327 337 349 355 324 330 338 79 49 327 326 326 333 341 305 242 327 282 265 267 195 258 302 301 296 286 301 275 298 284 284 269 292 221 261 116 289 282 268 249 244 234 234
282 273 285 318 329 332 333 334 73 27 352 334 312 335 355 330 322 303 332 278 265 280 259 267 274 281 262 303 299 286 283 274 253 234 249 222 206 340 265 324 351 337 314 273 228
246 232 241 299 294 330 340 33 11 63 330 322 337 333 330 322 329 358 317 335 23 330 335 318 328 14 29 309 311 336 293 286 223 206 232 333 208 246 15 351 327 304 303 302 253
220 215 245 277 307 336 340 38 54 221 357 333 313 312 2 3 3 341 335 345 49 4 306 351 331 358 300 305 299 312 315 283 290 299 309 178 236 265 3 338 327 305 280 286 297
212 220 240 259 327 342 29 50 158 94 351 345 307 339 339 10 343 336 328 7 11 17 349 332 288 327 307 349 332 316 298 305 282 262 261 215 32 134 346 340 330 308 248 205 112
207 224 245 237 323 358 66 106 116 31 347 303 352 32 318 337 340 351 333 16 357 6 348 304 293 275 306 16 306 284 297 297 219 293 286 38 59 333 344 345 348 357 77 94 102
187 220 242 199 137 81 83 102 155 188 155 14 3 324 316 332 324 310 300 300 39 335 326 272 214 300 330 4 356 350 353 270 281 291 324 334 86 349 341 350 0 2 41 66 89
182 213 212 173 65 47 102 116 145 153 164 292 329 260 294 322 298 296 284 270 339 325 341 336 295 289 333 39 24 14 5 355 336 3 317 300 80 355 347 3 26 22 37 51 77
187 197 187 178 172 124 117 114 178 180 170 210 219 240 317 291 302 293 306 281 343 24 345 336 299 297 317 4 23 17 10 12 340 337 9 360 348 347 356 16 31 35 35 49 64
178 144 151 190 163 131 146 169 155 210 214 177 285 312 286 251 226 293 299 308 329 25 345 296 277 339 326 340 0 8 9 10 16 7 357 22 343 7 359 13 25 33 37 46 60
199 197 169 163 218 134 167 155 144 156 210 195 241 231 240 291 273 233 283 316 345 12 355 61 290 340 288 217 25 19 11 2 19 5 31 355 16 6 6 1 25 35 42 46 52
190 156 146 108 137 120 205 204 160 136 162 211 205 261 218 205 232 294 350 334 313 338 347 3 298 326 285 247 202 17 7 1 18 12 359 29 41 13 12 29 29 30 37 41 44
199 164 146 156 162 165 197 172 186 146 218 248 214 326 250 254 264 265 276 284 283 300 314 347 5 358 288 339 35 5 356 345 342 17 337 10 13 22 30 33 27 24 36 39 43